Location: *
(51.1248°S, 108.4023°W)
Time: 22:21:26
(UTC+00:00)

SL-08 RB Rocket - Pass Details

Date: 15 June 2021
Orbit: 647 x 683 km, 97.8° (Epoch: 04 August)

Event Time Altitude Azimuth Distance (km) Brightness Sun altitude
Rises 13:55:11 0° 19° (NNE) 3,047 7.8 -11.9°
Reaches altitude 10° 13:57:25 10° 19° (NNE) 2,136 6.9 -11.6°
Maximum altitude 14:02:06 82° 104° (ESE) 704 3.9 -10.9°
Drops below altitude 10° 14:06:49 10° 192° (SSW) 2,146 6.0 -10.2°
Sets 14:09:04 0° 193° (SSW) 3,063 6.8 -9.9°
